{"data":{"norad_id":62406,"intl_designator":"2024-248A","name":"STRIX-2","alt_names":[],"object_type":"PAYLOAD","status":"ACTIVE","operator":null,"country":"JPN","launch_date":"2024-12-21","launch_site_code":"RLLB","launch_vehicle":null,"mission":null,"orbit_class":"UNKNOWN","rcs_meters":null,"size_class":null,"mass_kg":null,"dimensions":null,"purposes":[],"wikipedia_slug":null,"has_3d_model":false,"image_url":null,"decayed_at":null,"tle_current":{"epoch":"2026-05-25T04:36:51.030720Z","epoch_age_seconds":58209,"freshness":"FRESH","line1":"1 62406U 24248A   26145.19225730  .00005113  00000+0  33006-3 0  9999","line2":"2 62406  97.6277 100.9742 0017726  57.4526 302.8412 15.08583093 78123","mean_motion":15.08583093,"eccentricity":0.0017726,"inclination_deg":97.6277,"raan_deg":100.9742,"arg_perigee_deg":57.4526,"mean_anomaly_deg":302.8412,"bstar":0.00033006,"rev_number":7812,"period_min":95.453807395944,"perigee_km":528.2647353932,"apogee_km":552.79278925379,"semimajor_km":6918.6657623235,"source":"CELESTRAK","updated_at":"2026-05-25T13:38:02.973405Z"}}}